Weather History for Greenwood, SC

Change the Weather History Date:

Tuesday, March 26, 2013

  Actual Average (KAND) Record (KAND)
Temperature  
Mean Temperature 39 °F -  
Max Temperature 50 °F 65 °F 84 °F (1949)
Min Temperature 30 °F 42 °F 22 °F (1955)
Degree Days  
Heating Degree Days 26    
Moisture  
Dew Point 23 °F    
Average Humidity 52    
Maximum Humidity 76    
Minimum Humidity 33    
Precipitation  
Precipitation 0.00 in - - ()
Sea Level Pressure  
Sea Level Pressure 30.07 in    
Wind  
Wind Speed 8 mph (West)    
Max Wind Speed 10 mph    
Max Gust Speed 17 mph    
Visibility 10 miles    
Events      
Averages and records for this station are not official NWS values.
T = Trace of Precipitation, MM = Missing Value Source: NWS Daily Summary

Daily Weather History Graph

Daily Weather History Graph

Search for Another Location

Airport:

Trip Planner

Search our weather history database for the weather conditions in past years. The results will help you decide how hot, cold, wet, or windy it might be!

Date:

Astronomy

Mar. 26, 2013 Rise Set
Actual Time 7:23 AM EDT 7:45 PM EDT
Civil Twilight 6:58 AM EDT 8:10 PM EDT
Nautical Twilight 6:29 AM EDT 8:39 PM EDT
Astronomical Twilight 5:59 AM EDT 9:09 PM EDT
Moon 7:19 PM EDT 6:38 AM EDT
Length of Visible Light 13h 11m
Length of Day
12h 21m
Waxing Gibbous, 99% of the Moon is Illuminated
Mar 26
Waxing Gibbous
Mar 27
Full
Apr 3
Last Quarter
Apr 10
New
Apr 18
First Quarter

Hourly Weather History & Observations

Time (EDT) Temp. Windchill Dew Point Humidity Pressure Visibility Wind Dir Wind Speed Gust Speed Precip Events Conditions
12:56 AM 35.1 °F 28.6 °F 21.0 °F 57% 30.01 in 10.0 mi West 8.1 mph - N/A   Clear
1:56 AM 34.0 °F 26.6 °F 21.9 °F 61% 30.01 in 10.0 mi West 9.2 mph - N/A   Clear
2:56 AM 33.1 °F 24.9 °F 21.9 °F 64% 29.99 in 10.0 mi West 10.4 mph - N/A   Clear
3:56 AM 33.1 °F 26.9 °F 21.9 °F 64% 29.99 in 10.0 mi West 6.9 mph - N/A   Clear
4:56 AM 32.0 °F 25.6 °F 23.0 °F 69% 29.98 in 10.0 mi West 6.9 mph - N/A   Clear
5:56 AM 30.9 °F 24.3 °F 23.0 °F 72% 29.99 in 10.0 mi WSW 6.9 mph - N/A   Clear
6:56 AM 30.0 °F 23.2 °F 23.0 °F 75% 30.00 in 10.0 mi WSW 6.9 mph - N/A   Clear
7:56 AM 30.9 °F 24.3 °F 24.1 °F 76% 30.02 in 10.0 mi West 6.9 mph - N/A   Unknown
8:56 AM 35.1 °F 27.9 °F 25.0 °F 67% 30.04 in 10.0 mi West 9.2 mph - N/A   Clear
9:56 AM 39.9 °F 34.5 °F 24.1 °F 53% 30.06 in 10.0 mi West 8.1 mph - N/A   Clear
10:56 AM 43.0 °F 38.2 °F 21.9 °F 43% 30.06 in 10.0 mi WNW 8.1 mph - N/A   Partly Cloudy
11:56 AM 44.1 °F 41.5 °F 21.9 °F 42% 30.07 in 10.0 mi Variable 4.6 mph - N/A   Overcast
12:56 PM 45.0 °F 39.7 °F 21.0 °F 39% 30.08 in 10.0 mi WNW 10.4 mph - N/A   Overcast
1:56 PM 46.9 °F - 21.9 °F 37% 30.07 in 10.0 mi WSW 8.1 mph - N/A   Overcast
2:56 PM 48.9 °F - 21.0 °F 33% 30.07 in 10.0 mi West 9.2 mph 17.3 mph N/A   Overcast
3:56 PM 48.0 °F - 21.0 °F 34% 30.07 in 10.0 mi West 10.4 mph 16.1 mph N/A   Overcast
4:56 PM 48.0 °F - 21.0 °F 34% 30.08 in 10.0 mi West 9.2 mph - N/A   Overcast
5:56 PM 48.0 °F - 21.0 °F 34% 30.09 in 10.0 mi West 8.1 mph - N/A   Overcast
6:56 PM 46.9 °F - 21.9 °F 37% 30.12 in 10.0 mi West 5.8 mph - N/A   Overcast
7:56 PM 46.0 °F 41.9 °F 23.0 °F 40% 30.14 in 10.0 mi West 8.1 mph - N/A   Overcast
8:56 PM 44.1 °F 39.5 °F 24.1 °F 45% 30.17 in 10.0 mi NNW 8.1 mph - N/A   Overcast
9:56 PM 43.0 °F 39.5 °F 24.1 °F 47% 30.21 in 10.0 mi NNW 5.8 mph - N/A   Overcast
10:56 PM 39.9 °F - 23.0 °F 51% 30.23 in 10.0 mi Calm Calm - N/A   Scattered Clouds
11:56 PM 35.1 °F - 25.0 °F 67% 30.23 in 10.0 mi Calm Calm - N/A   Clear